Location: *
(35.1500°N, 76.6700°W)
Time: 19:19:50
(UTC+00:00)

BREEZE M DEB (TANK) - Pass Details

Date: 13 October 2019
Orbit: 281 x 14541 km, 49.5° (Epoch: 11 November)

Event Time Altitude Azimuth Distance (km) Brightness Sun altitude
Rises 23:42:53 0° 326° (NW) 2,097 5.8 -14.8°
Reaches altitude 10° 23:44:40 10° 349° (N) 1,520 4.7 -15.1°
Maximum altitude 23:47:01 19° 40° (NE) 1,483 4.1 -15.6°
Enters shadow 23:47:45 19° 53° (NE) 1,661 4.3 -15.8°
